COSMOS 1492 (GLONASS)

Satellite information

Favourite Embed

Satellite Type and Status

PAYLOADIN ORBIT

Key statistics

Satellite COSMOS 1492 (GLONASS) at a glance.

Uptime

15418

Days in orbit

Revolutions

≈ 2.1

Per day

Orbit

MEO

Medium Earth Orbit

Inclination

64.7

Latest

Satellite identification and parameters

Extended collection of information and parameters for COSMOS 1492 (GLONASS).

Object identification

Identified? True

Debris? False

Object name: COSMOS 1492 (GLONASS)

International designator: 1983-084C

Object number (NORAD): 14260

Object ID (CCSDS): 14260

Country: COMMONWEALTH OF INDEPENDENT STATES (CIS)

Current information (Y/N): Y

RCS size: MEDIUM

Orbital parameters

Period: 676.822 minutes

Inclination: 64.6685 deg

SMA: 25535.436 km

Apoapsis: 19161.376 km

Periapsis: 19153.227 km

RAAN: 83.2035 deg

Eccentricy: 0.00015958

Argument of periapsis: 16.9407 deg

Mean anomaly: 348.2601 deg

Mean motion: 2.12758948 rev/day

Mean motion (dot): 0.00000046 rev/day2

B* drag term: 0.0 1/REarth

Two-line elements (TLE)

Creation date: Oct. 7, 2025, 5:38 p.m.

Reference frame: TEME

Reference center: EARTH

Epoch: Oct. 7, 2025, 10:19 a.m. UTC

TLE line 0: 0 COSMOS 1492 (GLONASS)

TLE line 1: 1 14260U 83084C 25280.43037499 .00000046 00000-0 00000-0 0 9992

TLE line 2: 2 14260 64.6685 83.2035 0001596 16.9407 348.2601 2.12758948326202

Live tracking on map

Real-time ground track for satellite COSMOS 1492 (GLONASS).

In-orbit conjunctions

A list of the most updated potential collisions computed for object COSMOS 1492 (GLONASS).

Target Orbit TCA Probability of collision Miss distance Type
SL-12 R/B(2) MEO 2025-08-26 17:04:07 TBA 4781.0 (m) ROCKET BODY
COSMOS 1712 (GLONASS) MEO 2025-05-24 04:43:38 TBA 1968.0 (m) PAYLOAD

Associated space launch

Second generation high resolution film-return Yantar reconnaissance satellite

COSMOS 1492 (GLONASS) was lifted into orbit during the mission ‘Soyuz U | Yantar-4K1 10’, on board a Soyuz U space rocket.

The launch took place on Aug. 10, 1983, 1 p.m. from 1/5.

For more information about the launch, click the button.

Launch to space Soyuz U | Yantar-4K1 10
Soyuz U | Yantar-4K1 10

Agency: N/A

Status: Launch Successful

Launch date: Aug. 10, 1983, 1 p.m. UTC

Rocket: Soyuz U

Launch pad: 1/5

Location: Baikonur Cosmodrome, Republic of Kazakhstan

...

Latest news about this satellite

There are no fresh news available about this satellite. Check back as we update our databases every day.


Newsletter sign-up

Weekly statistics, charts and insights to help you stay on top of the space industry.